RH
15 15 15 15 15 15 15 15 14 14 14 13 14 13 13 13 12 13 13 13 12 10 10 10 10 11 11 10 9 10 15 14 11 12 13 15 16 16 15 14 14 12 11 10 9 12 13 15 18 13 12 17 21 25 21 31 43 40 47 53 54 63 62 59 59 55 44 38 41 48 50 50 51 50 53 65 74 74 76 82 85 85 85 87 88 88 91 89
15 15 15 16 15 15 14 14 13 13 13 12 13 12 12 12 12 13 12 13 11 9 10 9 10 10 10 10 8 10 15 12 12 14 14 15 16 16 16 14 13 12 12 10 11 17 17 19 25 18 15 19 20 21 23 26 33 49 60 52 55 65 62 58 57 49 36 34 43 48 47 47 52 49 52 78 88 77 83 90 90 97 94 88 89 90 90 88
15 16 16 16 14 14 13 13 12 11 11 11 11 11 12 12 13 13 12 13 11 10 9 8 10 9 9 9 8 12 15 14 14 15 14 15 16 16 16 15 14 13 13 12 13 18 22 23 23 19 17 16 21 23 23 25 31 52 56 45 56 64 56 54 55 43 31 40 48 45 45 50 55 52 58 80 80 74 83 87 92 101 98 90 85 82 81 80
16 15 14 14 13 13 11 11 11 10 10 11 11 11 11 11 11 11 11 12 11 11 9 9 10 9 10 8 9 13 16 19 18 15 14 15 16 16 16 15 15 14 14 12 12 17 21 23 19 19 17 15 26 25 21 28 29 40 46 43 55 55 42 41 48 44 35 41 47 45 47 51 54 55 62 71 73 75 75 73 81 91 92 80 66 64 67 67
14 13 13 13 12 11 10 9 9 10 11 10 10 10 11 11 11 11 10 10 11 11 9 9 9 9 9 9 15 17 18 27 22 14 15 16 15 15 16 15 15 15 14 12 13 15 15 18 18 23 23 15 21 19 17 28 28 35 42 40 54 53 34 31 37 40 40 40 44 50 50 52 55 58 61 66 76 78 73 69 64 64 65 58 52 55 57 57
13 13 13 12 11 9 8 9 9 11 10 9 11 12 13 13 13 12 11 10 10 11 10 8 8 9 9 13 20 19 21 25 19 14 16 16 15 15 15 15 16 15 14 13 13 13 14 16 15 22 27 18 19 16 16 27 27 31 36 33 46 48 33 32 36 40 43 42 47 51 51 55 58 60 59 60 70 68 65 64 54 50 49 46 48 47 47 48
13 13 12 10 10 9 9 10 11 11 8 9 13 14 13 12 12 10 10 10 9 11 9 7 9 9 12 17 18 19 23 19 14 16 17 15 15 15 14 14 16 14 13 13 13 16 18 17 16 24 27 19 20 18 19 31 29 25 30 32 35 38 36 39 43 46 47 46 51 51 50 58 60 60 57 54 56 54 53 52 47 46 45 44 44 43 43 44
13 13 11 10 9 9 9 10 11 10 8 11 14 14 13 13 12 10 8 8 9 10 9 8 9 10 16 21 20 25 25 17 14 16 16 16 16 15 14 15 15 13 13 14 14 17 19 17 18 24 23 20 21 22 25 30 31 27 27 32 31 34 40 45 48 48 49 50 50 51 56 59 56 55 56 55 48 43 45 44 44 43 41 43 41 43 44 43
13 12 10 10 9 9 8 9 10 9 8 11 14 14 14 14 13 12 9 7 8 9 9 9 9 13 18 21 28 30 21 14 15 15 16 16 16 16 15 15 15 13 13 15 16 14 16 18 19 19 19 24 22 23 29 23 26 30 30 35 32 31 36 40 48 47 47 50 46 51 61 58 53 55 56 57 46 38 42 42 42 41 40 42 40 43 43 44
13 11 10 10 9 9 9 9 9 9 8 10 13 13 13 14 14 13 10 7 9 8 9 10 12 19 18 20 30 26 16 14 15 15 17 17 17 16 15 16 15 14 14 15 16 15 16 16 19 21 20 25 23 25 31 22 24 37 45 46 37 33 34 39 45 43 43 46 46 52 62 60 55 63 64 55 44 36 40 43 42 41 41 42 41 43 43 43
13 11 10 10 10 9 9 8 8 9 8 10 12 12 12 15 14 13 11 9 9 8 9 12 14 17 13 17 26 21 14 15 16 17 18 18 17 16 17 17 16 15 16 16 17 17 17 16 18 20 17 19 23 30 32 27 30 40 47 41 38 40 34 41 42 35 42 42 44 51 58 62 58 65 66 51 42 36 38 42 41 42 42 42 42 43 45 45
12 12 10 10 10 10 9 9 9 8 8 11 11 12 15 16 14 13 11 9 9 9 11 13 15 15 13 17 20 17 15 15 17 18 18 18 16 17 18 17 16 16 16 16 17 17 17 17 17 17 17 19 23 27 28 35 37 37 39 25 34 54 41 41 40 32 41 39 40 42 43 64 68 65 59 45 41 37 37 41 39 41 41 41 42 42 44 46
12 12 10 10 10 9 9 9 9 8 9 12 12 15 17 14 14 12 11 11 10 11 13 15 16 16 20 22 17 14 16 16 17 18 17 17 16 18 19 17 16 16 16 16 17 17 18 17 17 20 26 29 26 21 33 52 44 30 36 32 40 58 49 43 40 32 36 38 43 36 38 70 77 62 50 43 43 38 38 41 39 40 39 40 40 40 42 44
13 12 11 11 10 9 10 9 8 8 11 16 17 18 16 14 16 15 17 18 17 17 17 18 15 14 22 23 14 14 16 15 17 18 18 17 17 17 17 18 16 16 16 15 16 17 19 17 20 29 33 39 31 21 44 70 61 36 33 52 60 47 38 46 51 42 29 37 47 33 41 73 75 61 51 45 44 40 42 41 40 41 39 40 40 38 39 39
13 13 12 11 11 10 9 9 8 8 14 19 19 19 17 16 19 20 22 22 21 22 19 18 13 15 25 19 11 15 15 15 17 19 21 20 19 18 17 17 17 17 15 15 17 19 20 19 28 38 39 47 50 45 59 68 72 59 33 53 73 48 41 50 55 55 36 36 46 33 46 72 73 65 54 46 44 41 44 44 42 43 41 41 39 38 38 38
12 12 12 12 11 9 9 9 8 8 15 19 18 19 18 19 20 20 19 18 19 18 17 18 13 18 26 18 12 17 17 18 18 18 21 22 21 22 19 17 17 16 15 15 17 19 21 26 38 46 44 52 62 63 64 60 71 76 48 45 57 49 51 48 45 59 49 38 45 46 62 77 74 66 54 47 43 42 47 47 45 45 44 43 42 41 41 40
11 10 11 11 9 9 9 8 8 9 14 18 17 17 17 18 18 16 16 17 17 14 13 15 14 19 24 18 16 21 21 19 18 18 21 21 22 23 18 20 23 17 19 20 18 23 27 37 43 44 49 54 57 54 45 51 66 73 66 59 58 55 53 49 50 60 56 50 57 64 75 80 72 63 53 47 45 45 47 46 46 46 46 47 46 45 43 43
9 9 10 9 9 9 8 8 9 8 12 17 16 16 16 15 14 14 16 16 18 18 16 17 18 21 23 22 22 23 22 19 18 19 20 21 20 22 21 25 29 22 30 32 26 36 41 46 46 40 51 51 55 61 44 46 58 57 63 64 64 68 63 61 61 60 61 65 70 72 76 77 69 59 53 49 47 47 47 46 48 48 48 49 48 46 45 44
8 9 8 8 8 8 8 8 8 8 10 14 15 17 15 16 17 17 16 17 24 25 23 28 28 24 23 23 24 22 20 19 18 18 21 23 21 22 23 28 34 34 47 45 32 50 56 51 56 54 61 58 58 68 54 51 58 52 61 65 61 68 72 71 64 62 68 72 76 78 77 74 67 60 56 52 49 49 49 49 49 49 49 49 49 48 46 46
9 9 8 8 8 7 8 8 9 9 8 10 16 18 17 29 35 30 29 33 38 34 30 36 31 25 24 24 24 21 20 18 17 19 21 24 24 23 26 36 41 41 57 57 38 52 60 57 67 63 63 65 61 66 66 64 66 60 62 67 68 68 68 68 65 67 71 73 79 79 75 72 67 63 58 55 53 53 52 51 51 50 50 49 50 50 48 47
10 10 10 10 8 8 9 9 10 10 10 14 17 17 23 40 36 28 37 40 41 38 31 33 30 24 23 23 25 23 22 21 17 20 20 23 27 23 30 47 46 38 56 69 55 49 51 57 64 59 63 67 62 72 72 60 63 67 62 64 70 64 57 61 67 69 68 74 79 76 74 74 70 66 62 58 56 54 53 51 51 50 49 50 49 50 50 50
11 11 11 10 9 10 9 11 12 9 14 19 21 25 37 45 32 24 35 35 32 34 32 30 27 27 25 21 25 25 25 25 21 21 21 26 30 30 39 49 44 38 50 68 63 48 46 50 52 61 75 67 59 70 65 54 62 67 64 66 65 57 55 61 68 70 69 75 80 79 81 80 76 72 66 60 56 55 53 49 50 49 48 50 49 51 52 52
11 11 11 11 10 9 10 14 13 8 12 20 25 33 41 41 30 24 32 36 30 30 36 35 28 31 29 23 25 26 27 29 29 26 24 31 38 47 56 51 46 44 45 55 55 47 46 42 49 71 78 60 50 59 58 55 59 59 59 59 55 54 53 52 62 73 71 72 79 82 85 83 79 76 70 62 61 63 58 50 51 50 48 49 47 49 51 51
10 12 11 11 10 11 14 15 14 12 13 22 28 33 37 33 28 28 36 43 35 27 32 33 29 31 29 26 25 28 31 32 34 28 25 36 44 50 55 52 57 55 49 53 49 47 44 38 54 69 66 56 47 53 59 54 53 62 63 53 52 58 54 50 61 70 69 71 75 76 78 79 78 77 70 65 68 69 62 56 55 54 51 51 51 51 51 52
10 10 11 12 10 12 15 15 17 15 14 24 31 35 36 30 30 32 34 38 31 25 30 28 27 29 25 25 26 30 35 32 32 29 25 35 44 46 48 54 64 60 56 55 45 43 41 43 57 55 54 57 47 49 57 52 53 61 59 52 52 56 58 63 64 63 67 66 62 65 69 71 78 84 74 65 70 68 62 62 58 55 55 55 56 55 54 55
9 11 13 12 12 14 18 23 23 17 15 24 32 34 31 30 32 28 37 53 40 24 27 24 23 27 23 26 33 38 40 36 29 26 26 30 36 43 49 57 62 59 63 60 49 46 43 51 58 49 53 57 50 51 49 54 59 50 49 57 59 59 63 69 66 64 69 60 56 63 66 67 72 80 80 73 73 70 65 66 62 57 57 57 57 55 55 56
11 15 15 12 14 15 20 29 29 25 22 22 26 27 23 26 27 22 41 61 43 22 27 30 23 23 24 28 37 39 35 36 29 24 30 28 30 40 48 59 59 56 66 63 50 46 46 56 58 49 52 54 52 50 46 56 54 39 50 62 60 60 61 66 67 67 67 59 60 63 64 78 80 75 85 84 76 75 69 65 64 61 59 57 57 56 55 54
16 19 15 14 15 16 21 28 29 29 26 20 22 22 20 22 24 35 46 35 24 26 31 33 23 21 32 32 36 43 37 38 32 25 30 27 26 36 42 54 57 52 61 62 51 47 48 57 54 47 51 52 47 43 49 57 47 44 63 65 61 65 68 76 77 76 73 62 63 62 63 84 87 77 87 88 81 81 74 66 64 62 61 59 57 57 56 54
20 20 17 15 15 20 23 23 24 24 21 21 20 20 22 20 23 46 49 22 19 33 32 30 24 28 48 44 40 51 43 41 41 34 36 31 26 34 39 49 56 51 55 64 61 51 51 59 57 50 49 48 45 49 59 54 41 49 61 63 66 68 75 81 76 80 80 68 66 59 60 78 77 75 89 92 89 84 73 67 65 62 62 60 58 57 56 56
21 22 20 16 17 21 22 21 21 21 24 23 21 26 23 28 49 52 29 15 23 34 35 34 34 44 60 52 47 55 47 48 55 48 45 39 33 41 43 46 57 55 50 59 60 52 56 65 63 56 50 50 50 56 67 60 52 56 55 59 58 50 68 87 88 86 72 66 73 58 55 72 71 75 89 86 83 81 73 71 70 67 66 62 60 59 57 57
23 23 22 22 20 19 26 28 22 24 29 22 23 30 17 31 77 61 14 15 29 37 43 45 51 65 69 57 48 53 57 59 62 57 54 50 47 53 50 45 57 63 58 58 54 48 53 54 51 55 60 58 47 44 59 68 66 55 45 49 45 40 57 73 83 88 64 51 63 59 56 67 69 70 75 74 75 77 74 72 70 71 71 66 63 61 59 59
26 26 25 27 24 22 31 34 27 27 28 23 28 39 30 31 50 39 24 29 27 34 46 47 57 67 69 66 54 53 61 61 61 62 63 63 63 64 61 57 60 56 52 53 52 48 47 46 46 50 56 53 43 42 52 61 58 47 46 54 59 66 66 61 73 86 70 48 48 56 54 55 60 54 52 63 71 72 73 72 71 73 73 70 67 64 62 61
26 29 29 31 29 25 29 30 28 27 26 29 35 47 58 48 25 25 45 39 24 39 51 53 64 65 62 62 56 57 56 50 56 58 58 66 72 71 68 68 64 49 41 49 57 56 48 47 48 42 43 45 47 49 45 48 48 47 56 59 67 84 76 70 80 70 52 48 49 54 53 53 52 40 44 59 63 67 73 73 76 78 76 73 71 68 65 64
25 28 29 33 34 29 29 28 27 32 31 32 39 42 41 31 21 33 48 43 42 56 58 62 65 53 49 52 53 60 51 42 55 59 59 67 71 71 67 65 67 62 61 60 60 60 46 36 35 34 39 43 46 49 44 47 51 53 61 55 59 76 64 61 74 58 46 57 56 44 47 61 54 40 55 69 69 77 79 78 83 82 81 80 77 76 71 67
25 25 26 33 37 36 37 31 28 36 31 28 48 54 31 19 32 43 45 50 61 62 55 62 60 43 45 54 56 57 42 38 58 64 64 66 66 68 64 63 69 69 67 54 49 59 48 32 37 44 47 45 42 50 54 51 46 50 57 48 45 59 62 66 72 69 70 78 80 66 56 66 57 44 66 77 72 76 73 76 84 79 81 85 83 81 75 70
28 25 25 31 36 38 39 36 35 35 29 34 52 55 45 40 38 44 55 55 55 59 53 51 52 44 46 54 59 59 42 37 54 62 61 64 66 65 64 68 70 66 63 53 50 60 48 34 44 50 46 43 42 47 55 50 41 43 46 40 38 46 62 68 56 63 77 69 71 70 55 57 49 41 67 76 67 66 65 69 73 69 75 82 81 78 74 72
31 26 24 29 36 38 38 41 39 31 33 49 54 44 50 54 42 60 86 70 55 64 59 45 41 38 43 51 55 63 54 38 47 57 52 53 56 58 66 70 64 64 69 61 55 60 55 45 47 45 36 42 55 55 54 53 44 41 39 36 39 41 52 57 47 60 74 59 56 62 60 64 52 43 61 65 58 61 61 62 63 64 71 75 74 72 71 71
31 29 25 28 32 34 39 41 34 32 42 63 73 61 57 58 55 76 94 75 63 68 59 49 42 39 48 50 45 61 63 42 48 61 49 44 50 52 62 64 60 73 82 69 58 59 59 48 41 44 40 45 58 51 46 54 47 39 40 35 37 42 44 47 49 51 49 49 59 68 72 69 59 60 62 50 50 54 52 58 62 62 64 66 67 67 68 70
28 31 31 28 29 29 35 32 26 36 45 57 73 66 54 60 70 86 89 72 64 61 52 50 47 46 53 52 47 58 62 49 52 58 42 39 48 47 56 59 57 78 88 71 64 64 58 45 37 44 46 43 48 46 51 60 49 44 50 45 50 62 57 49 53 55 51 58 64 66 72 64 60 73 61 40 48 54 50 56 59 57 57 58 62 64 65 67
27 32 30 24 26 26 23 20 32 56 60 57 69 65 57 61 70 87 95 82 64 48 45 54 53 46 48 54 53 55 65 66 59 54 47 48 50 44 56 64 60 75 82 68 67 70 59 48 46 49 45 38 38 46 58 59 55 59 58 52 57 65 64 55 55 64 72 76 77 79 77 56 47 60 52 39 49 54 52 52 51 54 56 55 60 63 63 65
30 35 29 22 26 28 27 32 55 80 77 67 70 69 65 62 60 75 88 88 78 57 51 62 60 51 49 51 51 56 72 77 65 59 55 52 46 38 51 72 75 73 66 58 62 66 58 53 62 65 53 42 40 50 59 55 59 67 57 56 61 58 58 51 49 74 87 79 81 88 76 47 35 45 45 42 48 53 55 51 47 52 53 53 57 59 63 65
39 39 28 23 22 24 35 53 77 93 86 72 68 67 73 70 59 61 68 71 72 62 57 60 60 61 58 51 54 64 71 70 66 62 55 51 49 44 58 84 94 81 60 53 61 68 67 66 70 68 54 42 39 50 66 63 59 60 54 61 68 67 71 56 45 72 84 74 83 96 82 51 37 48 51 47 51 57 60 58 54 54 52 53 55 54 59 62
49 33 20 21 20 25 40 55 72 85 79 71 68 67 76 76 61 55 60 60 55 52 52 53 52 53 53 54 61 66 60 56 60 58 57 65 61 59 79 95 96 83 61 54 61 66 71 71 68 65 56 47 41 47 62 63 54 55 62 71 69 68 81 75 66 75 76 78 91 99 86 51 35 56 61 53 58 59 58 62 60 57 55 54 54 52 53 54
50 28 25 25 13 24 46 53 63 74 67 58 57 59 63 67 63 56 53 56 57 51 49 53 53 48 53 66 69 64 53 43 46 51 57 68 65 71 97 102 85 69 56 57 61 54 53 58 60 61 56 53 57 59 60 55 52 56 67 81 79 76 85 84 79 77 73 75 77 80 77 44 30 57 61 53 62 58 53 58 58 57 55 49 49 49 47 49
38 26 38 36 18 31 54 59 64 72 69 57 51 57 58 55 66 69 58 60 70 64 51 49 56 58 62 69 66 65 59 44 43 52 56 64 67 75 97 99 80 69 70 81 78 57 52 56 54 53 50 45 47 50 52 55 57 59 68 82 84 82 79 70 73 80 76 75 71 68 64 35 22 44 47 44 56 53 48 52 51 52 51 47 48 46 44 47
29 27 40 40 32 46 63 73 75 67 67 66 51 52 59 51 59 73 66 60 68 70 60 53 58 62 58 60 64 67 67 57 54 58 59 65 65 67 88 99 89 84 91 99 94 77 72 72 63 59 55 46 37 34 42 53 52 47 56 74 84 82 72 67 84 91 83 85 79 60 51 40 31 34 32 32 40 40 40 41 39 42 43 44 47 45 47 49
37 38 43 32 28 44 53 65 78 67 60 62 45 39 56 53 49 61 59 54 62 69 66 59 57 52 46 52 61 67 69 64 62 61 61 71 73 69 82 97 97 95 97 97 92 77 65 62 69 73 62 50 44 39 43 51 49 44 48 59 77 88 78 70 79 76 70 78 70 47 48 53 40 30 28 29 30 31 34 32 31 36 39 41 43 46 52 53
39 43 51 37 29 43 43 43 70 76 65 70 64 53 61 58 51 55 52 52 64 63 55 54 53 52 56 51 42 51 57 47 51 64 65 73 84 73 66 76 88 93 92 87 85 75 59 55 68 79 73 63 59 55 55 59 58 56 58 56 63 82 85 74 67 62 61 62 50 41 51 52 37 30 30 29 28 29 30 28 31 38 42 46 47 48 52 51
42 46 56 52 47 60 64 56 66 70 66 78 76 61 62 58 49 56 58 56 61 55 46 43 39 50 74 68 45 51 56 33 27 50 63 71 81 74 60 58 69 82 83 79 82 78 66 67 79 84 79 71 67 64 64 69 70 66 67 65 62 70 78 74 65 60 59 55 45 42 49 46 37 34 33 31 31 33 34 36 41 45 47 47 46 47 47 46
42 41 48 58 60 74 85 73 63 58 56 65 59 49 65 64 46 54 67 61 49 43 43 37 31 53 83 80 59 54 55 38 21 32 57 65 66 74 73 59 59 74 77 75 79 67 53 70 92 90 74 64 65 68 66 70 78 72 61 58 61 67 75 75 72 69 68 66 58 53 60 59 44 36 37 37 36 39 43 44 44 44 44 43 42 41 41 42
37 35 38 45 49 62 72 66 64 55 39 42 46 46 59 62 51 54 58 53 45 39 41 39 42 68 88 84 73 62 56 51 35 34 55 56 49 60 63 54 61 76 78 77 79 65 53 68 85 79 64 58 62 68 65 60 65 65 55 48 51 61 72 73 70 71 70 67 65 67 72 62 41 34 40 41 41 45 45 41 38 35 35 36 36 36 37 40
34 30 36 41 38 52 68 62 55 43 25 38 56 54 54 58 61 56 39 46 66 61 52 54 57 68 78 80 79 70 64 65 54 51 62 58 57 66 60 54 65 78 84 86 84 81 72 66 69 67 64 68 69 63 60 56 50 46 46 46 45 49 59 60 57 60 60 58 62 66 58 41 31 34 38 35 37 39 36 33 32 30 29 31 33 35 36 37
Wind_Speed
3 4 5 5 5 5 4 5 5 6 7 7 8 9 9 9 9 8 8 7 6 6 5 4 3 4 5 6 6 5 4 8 12 16 12 8 12 13 13 13 13 12 11 9 10 6 2 2 4 4 5 3 2 0 1 1 1 3 3 1 3 3 4 6 6 6 4 2 2 3 4 7 5 2 1 5 9 8 9 8 6 9 10 12 19 25 25 26
3 4 5 5 5 5 6 6 7 8 8 9 9 10 10 9 9 8 7 7 6 5 4 4 3 4 5 5 5 4 4 6 12 16 12 11 13 14 13 13 12 11 10 9 9 7 4 3 5 5 4 2 2 1 1 1 2 3 3 1 4 5 5 6 7 5 2 2 4 4 4 6 3 3 2 5 5 6 11 8 6 11 11 15 20 23 22 23
5 5 5 6 6 7 7 8 8 9 10 10 10 10 10 10 9 8 7 6 5 5 4 3 3 4 5 4 4 3 4 4 8 9 10 12 13 15 15 14 11 9 8 9 8 5 2 1 2 4 4 2 1 1 1 1 0 2 3 2 6 5 5 4 4 4 3 4 7 5 4 8 5 4 2 5 7 9 9 4 4 9 10 11 13 17 19 20
6 6 7 7 8 8 9 10 10 10 10 10 10 10 10 10 9 9 8 6 5 4 3 3 3 4 4 3 3 1 4 4 5 6 11 12 13 16 16 14 10 7 8 9 7 4 2 1 3 4 3 1 3 2 1 1 1 2 3 4 5 3 3 3 2 4 3 5 8 5 5 8 5 6 5 3 7 7 4 3 4 5 10 10 10 13 18 21
6 7 7 8 9 10 10 10 10 9 9 10 11 10 8 8 7 7 7 6 5 3 3 2 2 3 3 4 4 1 4 4 3 7 12 12 14 17 16 15 8 5 8 8 6 3 2 3 5 6 3 1 2 3 0 2 2 2 2 3 4 4 2 3 2 2 4 7 8 6 6 5 2 8 9 7 8 2 3 5 5 4 7 9 10 12 17 19
6 7 8 9 10 10 11 10 8 8 10 12 10 8 8 7 7 6 5 4 4 2 2 2 2 2 2 3 3 2 5 2 5 9 13 13 16 18 17 14 7 5 8 5 3 2 2 3 5 3 3 1 1 2 1 2 2 2 3 2 1 2 1 3 4 4 4 8 7 5 5 4 6 8 8 11 8 2 4 4 4 9 11 15 15 14 14 15
5 6 8 8 9 10 11 9 7 9 11 11 9 8 9 9 9 8 6 3 3 3 2 2 1 1 0 4 6 6 6 2 7 10 12 12 16 20 16 10 7 6 5 2 3 2 3 5 3 3 4 2 2 2 1 3 4 2 3 3 2 2 4 4 4 5 8 10 6 6 8 6 8 7 5 10 7 5 6 5 10 14 17 20 16 13 13 14
5 7 7 8 9 10 12 9 7 10 12 10 8 9 10 10 10 9 8 3 2 3 3 3 2 1 1 4 5 6 4 3 10 12 13 12 16 23 13 5 5 4 2 4 3 3 3 5 3 3 3 1 3 2 1 2 4 3 2 2 3 4 4 5 7 9 12 11 8 14 13 8 8 8 6 7 7 6 6 8 12 13 15 16 13 12 13 14
5 7 8 8 9 11 12 11 9 10 12 10 8 9 10 12 11 8 7 4 3 4 4 4 2 0 1 3 5 5 3 6 12 13 15 14 19 21 8 1 5 4 4 6 5 4 3 2 3 3 3 2 3 1 2 1 1 2 1 2 4 3 3 5 8 8 9 5 7 15 11 5 5 6 7 6 6 5 5 8 9 9 11 10 10 11 12 13
5 8 8 9 10 11 12 12 11 11 12 10 9 10 12 13 11 8 6 4 4 5 4 3 1 2 3 2 6 5 4 9 13 16 16 17 20 13 4 3 6 6 5 6 7 7 3 3 3 3 5 2 2 1 2 1 1 2 4 5 6 5 3 5 7 5 6 3 5 12 7 4 4 3 5 4 5 4 5 9 8 9 10 8 8 9 11 12
5 7 8 9 9 10 11 12 13 13 12 11 10 11 12 13 11 7 5 4 4 6 5 5 8 11 14 11 7 4 7 11 15 18 17 19 16 7 6 5 5 6 6 6 7 6 4 3 4 4 2 1 2 1 1 1 2 3 5 6 7 7 5 7 6 2 4 3 4 11 9 5 9 5 3 2 4 4 5 9 9 9 8 7 8 8 9 10
5 6 8 9 9 10 11 12 13 13 12 10 10 11 12 11 8 6 5 5 5 6 5 9 11 9 15 14 6 3 9 12 17 20 17 17 11 7 8 5 3 6 6 6 5 4 4 2 4 5 0 2 2 1 1 1 3 2 3 4 4 6 7 8 3 1 5 2 3 4 4 5 8 4 2 3 3 3 6 8 7 7 5 5 6 6 7 9
5 7 8 9 10 10 11 11 12 12 10 9 9 10 10 8 7 7 6 6 5 5 5 7 4 3 7 7 3 7 11 13 19 22 18 16 9 7 10 7 4 6 7 6 5 5 5 2 5 5 2 4 1 1 3 4 3 0 3 4 2 5 6 8 4 2 6 2 3 1 1 3 4 2 1 2 2 2 7 7 5 5 4 4 4 4 6 7
5 7 7 8 9 10 10 10 11 10 7 7 8 8 8 7 8 8 8 8 7 6 6 4 3 5 7 2 0 10 13 15 23 26 21 16 10 7 9 8 6 6 7 6 6 7 5 3 7 6 2 4 1 1 3 6 4 1 2 2 2 2 2 7 6 5 5 2 5 3 2 3 1 0 3 2 1 2 6 5 4 4 3 3 3 4 4 6
6 7 7 8 9 9 10 9 10 8 5 7 8 7 7 8 9 9 8 8 8 7 7 7 6 6 6 2 0 9 16 18 25 29 22 16 14 8 6 8 7 6 7 7 7 10 9 7 9 5 2 3 4 4 4 4 4 3 2 2 3 2 1 5 5 7 3 2 7 4 2 1 2 4 4 2 2 2 6 5 3 4 4 3 3 4 4 4
7 7 8 8 9 10 10 9 9 6 5 8 10 9 8 9 10 11 10 9 10 9 7 6 6 5 6 1 5 10 13 15 21 26 20 13 14 11 6 5 6 6 8 9 8 7 12 11 6 3 2 5 5 4 3 4 4 4 3 0 3 2 2 3 2 7 6 1 6 5 3 1 2 4 2 2 4 2 5 5 3 4 4 3 3 3 3 3
8 8 8 9 9 10 9 9 8 4 6 10 14 14 13 11 8 5 3 5 8 9 10 10 8 6 5 5 6 7 10 13 18 25 22 12 10 13 10 4 4 5 7 9 10 6 9 8 2 1 4 5 3 2 3 3 4 4 4 2 2 1 2 3 1 7 10 3 4 7 4 2 1 4 3 2 4 3 5 6 4 4 3 3 3 3 4 4
10 9 9 9 9 9 9 8 7 3 6 9 14 17 19 18 16 12 6 2 1 5 8 12 10 5 3 7 5 9 14 13 15 24 25 14 7 12 13 6 2 3 3 7 10 8 6 4 3 3 5 6 5 5 4 1 1 2 3 1 3 3 1 3 3 4 8 7 6 6 4 2 1 2 2 2 4 3 4 5 4 4 4 3 3 3 4 4
10 10 10 10 9 9 9 8 6 3 4 8 10 10 10 12 16 20 22 15 6 4 3 6 6 4 2 6 8 13 13 9 14 24 27 20 10 7 11 10 4 4 5 4 6 7 4 4 5 4 5 6 5 3 2 3 3 2 2 2 0 3 3 3 3 2 4 7 6 4 3 3 3 2 2 3 4 3 4 3 3 4 4 4 4 4 4 5
10 11 10 10 9 8 9 7 6 4 3 8 9 3 2 3 6 9 16 16 6 3 3 1 1 3 1 4 10 16 9 5 12 24 32 26 12 6 9 9 7 7 6 2 3 5 3 6 5 2 4 6 6 3 2 2 1 1 2 3 1 1 3 4 2 3 2 4 4 2 4 3 4 3 4 3 3 4 5 5 4 4 5 5 5 6 6 5
9 11 12 11 9 8 8 6 6 4 3 7 9 2 1 2 4 1 2 7 2 3 5 0 1 2 2 3 10 14 5 3 11 22 34 25 9 5 7 7 8 7 4 1 2 4 5 7 4 4 6 6 5 3 2 2 3 3 4 3 2 0 3 3 1 5 4 3 1 2 4 2 4 4 4 3 4 5 6 7 6 7 7 5 6 7 6 5
8 10 13 14 10 8 7 5 5 4 3 5 7 5 3 4 6 7 5 5 2 5 6 3 4 3 3 3 11 11 4 7 11 18 30 24 10 6 4 6 8 4 5 3 2 4 7 5 5 7 4 2 4 4 3 4 4 4 3 3 2 1 2 3 2 5 5 3 2 2 2 3 5 4 4 4 5 5 6 8 7 8 9 7 8 8 7 6
7 9 13 15 12 9 6 4 4 4 3 4 6 7 6 8 10 8 5 6 1 4 5 5 5 5 5 5 12 12 7 7 5 12 25 19 7 4 3 6 7 4 7 6 4 5 4 3 6 5 0 3 3 6 6 6 4 4 4 4 2 3 2 2 3 4 4 3 3 4 2 3 4 3 5 6 6 4 5 8 7 6 8 9 9 7 7 8
8 9 12 14 12 7 3 3 4 4 5 5 7 8 9 11 10 6 5 4 2 2 2 1 2 3 3 4 12 8 4 4 0 9 20 12 3 3 4 4 5 5 5 5 8 9 3 3 3 4 4 3 2 8 8 6 4 3 2 3 2 3 1 3 3 2 3 4 4 4 2 3 3 3 6 4 4 6 5 7 8 7 7 7 6 6 7 8
8 9 12 13 11 5 0 2 3 5 6 6 8 9 10 10 8 5 4 3 2 2 2 1 1 4 2 6 13 4 3 3 2 5 13 9 3 2 3 1 4 4 2 2 9 8 3 3 1 4 6 5 6 7 6 3 3 3 2 2 1 2 3 4 3 2 3 3 0 2 3 4 3 4 7 4 4 6 4 6 9 8 7 7 6 7 7 7
8 9 12 12 8 3 1 1 3 4 4 4 7 9 9 8 6 2 3 4 3 3 4 2 1 6 5 8 12 2 4 4 1 7 14 12 4 2 4 3 2 3 3 2 5 4 2 4 4 5 6 8 7 5 3 2 4 3 2 1 2 1 4 4 2 2 2 1 2 2 2 3 4 4 6 4 5 8 6 7 10 8 7 8 8 8 8 8
7 10 12 10 6 3 0 1 2 3 2 2 6 8 7 6 4 1 3 5 4 2 3 3 2 6 6 8 10 2 3 7 4 9 15 13 7 2 5 4 2 2 1 3 3 1 3 6 7 7 6 7 6 3 3 2 4 1 1 2 3 3 2 2 2 3 1 1 2 3 2 1 4 4 3 2 5 8 9 11 11 9 9 10 10 10 9 10
8 11 11 8 4 3 2 2 2 3 3 5 7 7 7 6 2 1 5 4 3 1 1 3 3 5 5 8 11 6 1 6 2 7 13 14 10 3 5 3 2 1 2 4 3 2 2 5 6 6 6 5 2 2 3 2 1 2 1 1 3 1 1 2 4 3 1 2 2 4 2 1 5 4 3 1 3 8 11 13 13 11 11 11 11 11 11 11
8 10 11 6 2 3 4 3 2 4 6 8 8 8 9 7 2 4 6 2 2 1 0 2 3 5 6 8 9 6 3 4 3 6 12 12 11 7 5 2 4 4 3 5 5 2 0 1 0 3 4 3 3 5 3 4 2 3 2 2 3 4 3 3 4 3 3 3 2 4 1 1 5 4 1 1 3 8 10 11 11 11 11 11 11 11 11 10
9 10 11 6 2 2 3 3 4 6 8 8 9 10 9 5 4 5 3 1 1 2 1 3 3 4 7 7 6 6 6 4 3 6 7 5 9 9 4 1 4 6 5 6 4 1 2 2 1 3 2 2 3 4 2 4 4 3 4 3 3 4 3 3 2 3 5 2 5 4 3 3 2 5 3 3 4 7 6 6 7 7 9 10 10 10 10 10
10 11 10 7 4 1 1 3 5 8 7 8 10 8 5 3 5 6 1 2 1 2 3 4 3 4 7 5 4 5 5 5 6 6 6 4 8 8 5 3 3 5 5 6 5 4 5 4 1 1 1 1 2 2 1 1 3 3 4 3 2 3 3 4 5 4 4 3 5 3 2 3 2 5 5 5 7 6 6 6 7 7 8 9 9 9 9 9
11 12 11 9 6 3 3 5 7 7 8 10 8 4 5 2 2 2 2 3 2 2 2 1 3 4 5 3 4 5 4 5 5 5 4 3 5 5 4 3 1 3 4 3 3 5 3 2 3 3 2 2 4 2 3 4 5 5 4 5 4 2 4 4 4 3 0 4 3 0 2 1 5 7 7 7 9 9 8 8 7 7 7 7 8 9 8 8
14 14 13 11 7 6 6 8 8 9 10 9 4 4 7 4 0 2 2 2 1 2 1 0 3 2 2 4 4 5 3 3 4 5 2 2 4 3 2 2 1 1 1 0 2 3 2 4 5 4 2 2 4 3 2 3 4 5 3 4 3 2 3 2 3 3 3 5 3 2 2 3 4 6 7 8 8 8 8 7 6 6 7 7 7 7 7 8
15 18 16 13 10 8 8 8 9 10 9 6 4 5 5 2 2 1 2 2 1 2 1 1 3 3 3 4 2 3 3 2 3 5 4 3 5 3 3 4 4 3 2 3 2 1 1 3 3 2 2 2 3 2 2 2 2 3 2 4 2 3 3 2 3 2 4 6 5 3 1 3 3 3 5 6 5 4 5 6 5 6 6 6 6 6 7 9
13 19 20 17 12 9 7 7 9 9 6 4 6 6 3 2 2 1 1 3 1 2 2 1 3 4 3 3 3 2 1 1 3 4 4 4 2 2 3 4 4 3 3 2 1 1 2 3 5 3 2 1 2 0 2 4 1 2 2 4 2 2 3 1 3 4 1 3 4 3 3 5 4 5 5 2 5 5 5 6 5 7 7 5 6 7 7 8
7 14 19 19 14 8 5 6 8 6 3 5 7 4 2 3 2 2 2 1 0 0 2 2 4 5 3 4 4 4 2 1 3 3 3 2 1 1 1 2 3 2 3 2 1 0 2 3 4 3 2 1 1 1 1 2 0 1 2 1 2 3 5 3 1 0 4 1 4 2 4 5 4 5 4 3 5 7 6 7 7 8 7 5 7 8 7 8
2 7 13 18 16 7 4 5 6 4 3 7 6 2 2 3 2 2 2 0 1 2 3 1 1 2 2 2 3 5 4 2 2 3 2 1 1 1 1 2 1 0 1 2 1 1 2 2 5 1 1 2 1 2 1 2 2 2 1 2 2 2 3 3 0 3 4 1 4 2 4 5 3 4 5 4 5 8 7 8 8 8 6 7 9 9 8 9
1 2 7 17 16 7 4 5 5 4 6 7 5 2 2 1 1 2 2 1 1 3 5 2 0 0 1 0 3 5 4 2 2 3 1 1 1 1 0 2 1 1 1 2 1 0 3 1 6 1 2 4 3 2 1 4 2 3 3 2 2 2 0 1 1 1 1 2 5 5 5 4 4 4 5 4 7 8 8 6 6 8 9 8 9 9 9 9
1 1 4 15 15 6 4 4 4 6 7 6 3 2 1 0 0 1 2 1 1 3 4 2 1 1 2 2 1 3 2 1 1 2 1 0 1 1 1 0 0 1 1 2 2 1 2 1 4 3 2 3 4 2 2 3 3 3 3 2 2 3 4 1 1 2 2 2 3 5 5 4 6 6 6 8 9 8 7 5 5 9 10 8 9 9 9 8
1 1 2 13 11 4 4 6 6 8 6 4 3 2 1 1 1 1 1 1 1 2 1 2 2 2 1 2 1 1 1 1 1 1 1 1 1 1 0 1 1 1 1 3 3 0 2 2 3 4 3 2 1 1 4 4 1 1 2 2 2 1 1 0 0 1 3 2 2 2 4 7 7 5 7 10 9 8 8 6 6 8 8 8 9 8 8 8
3 2 3 13 8 2 3 9 8 5 4 3 2 2 1 1 1 2 2 1 0 1 2 4 3 2 2 1 1 2 0 1 1 1 1 1 1 1 1 3 3 1 1 3 3 0 1 2 3 3 4 2 4 3 3 4 4 4 3 3 3 1 1 1 3 3 2 2 3 3 3 10 7 4 8 9 7 7 7 6 6 7 8 8 8 8 8 8
5 2 4 13 6 3 6 7 3 3 4 2 1 2 1 2 2 1 1 1 1 0 2 3 2 2 3 2 1 2 1 0 0 1 1 2 3 3 2 3 4 2 2 1 1 2 2 3 0 4 4 4 5 3 1 2 3 4 2 2 3 3 4 4 2 3 1 0 1 3 1 9 5 3 5 6 4 4 4 5 6 7 7 7 7 8 8 8
3 3 3 11 1 5 9 6 2 4 4 0 1 1 1 2 2 1 0 1 1 1 2 2 1 1 1 1 1 2 2 2 2 2 2 2 3 4 3 5 5 3 3 1 2 1 1 3 1 4 5 4 4 3 2 2 4 3 1 1 4 2 3 5 5 3 2 2 2 2 3 8 5 2 3 4 3 4 4 5 6 6 6 7 8 8 8 8
2 3 4 11 2 5 4 4 2 2 1 1 2 2 2 1 2 1 0 1 1 1 2 1 1 0 1 1 2 2 2 1 1 2 2 2 2 2 3 5 5 3 2 2 1 1 0 0 1 3 6 7 6 5 5 4 1 2 3 1 3 4 6 3 2 3 1 5 6 4 6 9 4 4 3 3 4 5 6 5 5 6 7 7 7 8 8 8
3 1 2 11 12 7 4 4 5 5 3 3 4 2 2 2 1 0 1 1 0 2 2 1 0 1 2 2 2 1 1 0 1 1 1 1 3 1 1 5 5 2 2 2 2 2 1 2 2 2 1 3 4 4 4 3 2 1 1 2 2 5 7 3 1 3 3 4 6 6 8 8 6 5 4 5 5 6 9 7 5 7 8 8 8 8 7 7
2 2 2 7 11 9 3 0 4 6 4 4 4 1 1 2 1 1 2 1 1 2 2 1 1 2 2 1 1 1 2 1 0 0 1 3 4 2 1 3 3 2 3 3 2 3 3 1 3 5 6 6 7 7 4 1 2 5 5 5 5 5 6 5 4 3 5 3 3 12 11 11 17 14 9 8 7 8 9 8 7 7 7 8 8 8 7 7
2 2 1 1 3 4 5 4 4 4 3 4 3 1 2 2 1 1 1 1 1 1 1 1 2 2 1 2 1 2 2 1 1 1 2 4 3 3 1 3 1 3 5 3 1 3 4 2 5 7 9 10 10 10 6 2 6 10 10 8 8 7 7 8 8 8 6 4 9 13 7 7 20 19 12 12 11 9 9 10 9 8 8 8 8 8 8 8
2 3 2 1 2 2 3 2 3 5 4 3 3 2 2 2 1 2 1 0 1 1 1 0 1 2 4 4 3 1 2 1 1 2 2 2 2 4 2 1 1 3 5 2 2 3 5 4 4 5 7 10 10 11 9 6 8 10 11 11 10 9 11 14 17 12 9 8 17 13 4 10 19 20 17 16 12 10 11 11 9 8 9 9 9 9 10 10
3 3 0 2 3 3 2 2 5 6 4 3 2 2 3 4 5 4 1 2 1 2 1 2 4 4 4 5 4 2 3 1 2 4 2 2 2 1 1 1 1 1 3 2 1 2 3 3 3 2 6 9 10 11 9 6 7 9 12 13 13 12 14 16 18 13 12 16 22 18 16 19 20 20 21 18 12 10 11 10 9 10 11 11 10 10 10 10
2 3 2 3 4 2 2 3 4 5 3 2 2 2 3 6 6 3 2 3 2 2 1 3 5 4 4 5 5 3 7 6 4 5 4 3 3 2 3 3 2 1 1 2 1 1 2 3 1 2 4 8 6 5 4 4 6 10 14 15 14 12 12 14 14 11 10 16 21 18 16 19 20 18 16 14 12 10 9 11 10 10 11 11 10 10 11 11
4 4 6 6 4 2 2 2 2 4 2 1 2 3 3 6 7 4 2 3 4 4 4 5 5 3 2 3 5 7 8 7 7 7 8 6 4 4 3 3 4 4 2 2 1 1 2 2 1 5 4 7 2 5 7 6 7 12 18 19 15 11 9 10 10 9 11 13 14 11 10 15 16 10 6 8 9 7 9 12 11 10 10 10 11 12 12 12
6 4 4 7 4 1 0 1 2 2 2 2 3 4 3 5 6 4 2 1 2 3 5 6 6 4 2 3 8 9 7 7 7 6 6 5 3 3 3 3 5 6 5 4 1 1 3 2 0 2 2 6 4 5 7 8 9 11 12 11 9 9 9 8 7 9 12 11 7 7 10 12 10 6 6 9 9 8 11 11 9 10 10 9 10 12 12 12
Wind_Direction
0 352 347 351 356 355 350 346 342 337 337 333 329 324 319 316 315 315 312 311 306 302 303 300 303 294 297 313 338 9 82 105 72 56 54 24 5 1 353 343 339 340 342 340 348 4 31 40 18 51 109 116 15 345 77 38 94 79 101 160 238 200 191 193 186 197 182 203 193 2 1 117 119 350 102 59 38 57 60 38 38 46 58 85 107 121 124 127
358 351 349 352 353 354 353 350 344 339 337 331 327 322 320 319 318 318 313 313 305 299 296 293 302 286 299 317 333 12 131 117 60 50 33 10 8 2 353 344 338 339 343 345 352 12 35 352 344 30 79 99 342 356 53 1 89 107 124 162 234 200 206 206 182 194 181 159 133 65 26 83 79 308 18 67 24 38 63 33 40 70 73 89 103 114 119 123
2 355 355 359 0 1 355 349 345 341 338 332 329 325 322 320 316 315 309 306 298 295 292 293 299 285 303 311 330 11 166 140 46 28 7 5 3 359 356 346 337 339 344 346 345 356 30 306 345 47 64 79 322 8 73 13 136 156 132 213 245 211 229 241 197 204 185 149 124 93 65 68 23 332 22 102 80 45 61 32 30 90 101 99 97 102 106 106
6 6 8 10 6 0 353 349 346 343 341 336 332 327 321 315 309 303 298 295 294 297 291 294 289 290 307 312 334 20 154 86 29 339 355 3 356 355 355 347 340 339 343 344 339 345 5 76 66 65 79 67 329 15 119 283 279 167 149 206 232 185 236 283 221 201 143 120 120 114 88 78 31 26 23 101 91 41 37 351 342 109 111 98 84 80 88 89
16 18 15 10 4 359 356 353 350 352 349 342 338 337 335 329 320 306 296 279 272 282 284 284 284 302 319 327 331 198 133 58 340 340 2 2 356 353 348 346 339 326 341 344 337 3 54 83 67 51 66 118 345 33 243 288 89 161 211 190 183 166 211 314 359 95 106 104 96 88 82 91 74 41 22 49 86 37 318 316 331 50 75 82 81 74 78 79
28 23 14 6 4 4 2 357 360 5 355 350 354 5 11 6 359 342 319 272 246 245 259 253 265 308 333 358 18 113 114 81 316 352 3 0 360 352 345 341 334 329 336 334 341 49 78 52 61 58 57 62 120 134 229 313 52 189 275 5 171 202 214 335 8 24 83 96 77 83 100 101 94 65 32 54 67 350 332 324 18 50 68 82 80 73 71 72
34 21 12 7 9 10 8 7 12 10 359 0 14 23 23 20 18 10 356 313 224 199 216 210 226 279 16 89 85 71 93 95 331 351 352 355 355 348 345 333 332 333 323 336 12 93 98 49 80 131 87 66 186 169 213 320 19 136 256 339 41 32 16 350 38 58 69 83 81 86 79 54 81 92 50 46 33 0 10 36 67 69 76 79 72 65 70 75
32 17 13 12 13 14 15 17 18 12 6 12 24 24 22 20 19 18 15 13 169 175 187 181 203 241 166 148 116 53 59 337 339 349 341 341 343 343 342 322 340 341 27 45 23 144 116 60 127 151 88 166 182 137 32 336 16 113 236 319 71 54 32 35 67 80 79 88 91 78 70 56 80 97 69 32 10 13 22 50 68 70 68 66 64 65 71 78
23 15 14 16 15 15 19 18 15 13 10 15 21 18 18 14 16 20 24 48 141 164 167 157 179 257 118 153 106 59 359 330 345 347 339 337 338 342 341 348 19 37 74 48 38 108 125 106 181 174 148 195 155 105 1 13 296 185 149 25 81 74 52 63 65 77 86 96 87 77 75 76 86 85 65 23 1 15 33 56 58 64 60 57 63 62 67 76
18 14 15 14 12 14 16 15 14 13 11 13 13 11 10 8 12 19 35 71 123 143 146 134 112 63 93 89 75 69 332 340 354 349 344 341 339 347 26 52 39 52 70 57 53 66 89 162 183 144 132 130 121 87 347 115 182 156 105 70 72 73 35 50 75 92 82 47 70 94 100 45 19 62 74 9 352 1 50 66 57 65 63 59 66 60 66 72
13 13 13 8 8 9 11 12 12 12 10 10 7 5 5 5 11 23 45 78 114 126 131 114 100 86 80 73 77 65 346 348 1 358 349 344 348 19 42 33 49 54 62 63 58 54 59 142 150 116 114 142 119 28 333 167 112 115 124 93 48 57 57 45 74 101 53 40 74 106 116 37 17 47 86 356 356 353 59 74 62 69 68 63 69 64 65 67
5 7 8 3 4 3 6 9 9 12 9 7 3 360 4 9 23 47 62 81 106 113 126 122 112 85 68 66 70 20 0 4 6 1 355 353 10 48 24 21 67 55 63 67 55 45 50 100 116 97 336 163 119 11 149 97 77 107 124 119 8 35 50 18 14 337 53 130 209 109 104 17 18 31 33 38 37 22 64 71 62 68 73 72 72 69 65 69
353 359 1 360 358 356 1 4 7 13 8 3 0 0 12 26 52 70 75 83 100 102 126 136 120 28 59 70 42 24 17 13 7 4 6 11 35 56 27 39 70 55 62 70 62 44 47 56 93 103 104 102 97 280 105 33 42 85 44 99 11 22 23 358 341 346 52 83 280 7 295 325 9 29 99 85 55 62 73 71 71 73 72 75 67 70 69 73
342 347 351 353 352 351 353 358 6 13 14 14 10 16 35 56 72 81 78 77 87 87 96 105 80 72 78 113 26 29 15 9 11 10 10 15 36 57 47 57 63 61 66 69 62 40 44 86 82 90 79 73 76 29 47 10 25 54 20 56 34 53 347 349 3 20 57 11 356 42 233 270 234 163 207 197 24 89 99 86 88 88 81 81 70 83 79 74
341 336 340 344 344 345 346 353 6 16 37 40 34 42 59 73 80 82 76 72 75 76 82 73 67 86 78 91 321 9 3 7 11 9 8 14 27 28 36 57 59 68 66 62 73 57 59 84 73 59 318 4 41 54 23 355 20 33 42 323 352 78 274 328 14 32 53 334 17 50 204 286 190 199 228 191 82 118 119 109 116 106 100 101 88 95 93 85
345 337 336 338 340 342 341 349 5 27 75 67 61 63 70 82 83 79 75 72 68 64 73 48 28 78 92 1 326 353 360 4 2 5 11 21 26 15 10 51 54 72 83 69 81 67 49 62 69 45 2 18 33 59 41 15 4 357 60 10 316 17 329 318 41 25 13 313 15 28 149 161 210 182 211 106 114 144 127 127 140 123 123 122 120 122 121 117
345 337 335 336 338 338 338 349 2 43 103 85 76 74 73 73 70 67 52 65 61 56 63 34 11 83 81 348 342 344 340 347 353 4 13 19 22 21 27 60 41 71 103 64 49 30 22 40 70 36 41 36 15 57 61 16 338 330 30 51 304 338 351 327 304 7 13 47 32 24 94 129 277 154 144 115 126 150 145 149 156 145 149 141 141 147 147 152
343 338 337 335 335 336 339 348 358 51 132 111 89 84 79 70 64 58 37 59 34 25 49 22 16 88 29 352 349 314 316 332 351 5 13 15 7 15 28 46 27 41 73 32 28 23 12 26 56 50 26 16 17 46 81 173 253 299 333 343 332 341 347 332 312 346 18 51 50 31 77 99 305 142 145 143 135 160 169 160 164 166 168 168 166 170 171 174
348 345 340 337 338 337 341 347 358 36 149 146 121 102 84 66 61 56 49 57 62 33 47 348 15 116 281 319 316 318 318 333 2 8 11 9 352 358 23 31 40 56 46 13 13 16 17 33 41 42 4 349 352 24 126 167 179 209 234 178 277 328 299 285 294 342 45 63 40 29 101 151 196 191 189 167 136 156 177 164 169 182 184 188 187 190 194 193
358 358 351 346 345 340 343 350 360 26 133 172 172 141 60 46 41 34 33 47 68 79 99 284 16 104 327 307 326 344 346 344 15 11 6 0 342 348 16 16 33 51 47 19 346 354 51 61 38 0 307 301 305 286 201 158 154 157 118 110 98 315 306 286 280 338 49 88 30 45 115 163 200 219 219 178 137 158 181 185 191 199 198 199 199 203 204 205
9 11 5 356 349 344 346 351 3 33 116 176 187 157 144 148 73 159 2 43 48 49 71 70 115 78 341 315 342 356 356 340 12 8 4 1 352 8 4 8 42 39 6 323 324 346 54 62 6 302 275 270 311 327 154 99 55 69 109 103 60 186 283 280 231 338 354 95 60 95 110 202 232 240 231 175 168 195 195 191 199 204 206 209 206 209 210 210
8 12 8 1 352 346 344 351 9 39 105 161 163 115 133 154 126 151 142 85 22 19 53 38 45 30 330 9 2 2 32 8 359 358 360 3 16 34 6 33 61 43 342 6 17 16 48 42 322 302 266 227 1 24 84 81 71 61 85 102 42 293 296 287 269 351 9 86 172 159 106 257 260 256 238 204 204 222 207 204 210 202 202 209 208 210 207 207
354 357 358 357 350 345 346 2 7 31 78 141 141 111 117 128 136 147 108 96 62 2 28 32 50 15 348 23 8 9 50 33 347 339 353 1 19 48 64 51 61 55 14 34 79 80 65 348 319 328 101 148 22 24 53 63 59 51 66 78 321 310 23 301 294 4 19 53 146 154 98 276 268 277 253 223 218 244 226 218 229 214 208 213 211 210 204 204
343 340 346 349 348 345 351 21 9 42 82 121 122 121 139 134 137 138 88 89 74 8 7 27 110 47 11 3 356 10 79 51 122 335 352 11 27 28 74 76 67 60 29 50 83 91 88 295 319 31 56 125 73 32 39 45 18 353 99 106 304 306 315 244 281 353 15 31 109 129 34 301 242 243 256 233 218 251 241 222 237 234 226 228 229 227 213 208
344 336 342 345 347 349 3 54 43 77 92 104 112 128 141 137 141 125 84 74 23 330 340 11 116 27 8 344 348 3 122 46 111 344 353 20 15 8 69 86 78 62 282 67 76 83 62 322 14 50 35 54 72 42 23 37 24 335 261 158 139 287 277 279 315 14 28 7 20 94 29 306 267 235 242 233 228 251 236 223 239 236 229 230 231 229 220 218
352 340 345 347 350 359 136 86 80 103 89 85 114 131 136 138 147 112 74 66 17 310 344 7 44 6 352 342 339 347 87 0 304 15 14 16 359 122 71 347 54 83 210 135 78 88 11 351 47 71 51 42 53 49 4 63 63 0 298 119 89 327 297 296 309 89 70 303 298 50 84 268 295 278 251 232 232 254 251 240 241 234 228 225 225 225 217 217
4 346 347 351 355 7 97 174 159 136 89 113 130 132 134 139 145 79 50 44 359 298 351 333 333 11 360 343 346 83 78 312 307 27 20 10 349 95 67 11 22 18 230 98 63 67 343 356 19 41 50 44 46 27 336 74 82 355 325 30 331 307 292 276 121 119 161 191 5 17 104 210 289 284 291 244 229 260 262 251 245 232 228 226 225 225 218 216
11 353 351 353 0 33 94 122 153 132 116 145 139 133 138 139 155 49 71 66 334 317 34 308 334 15 354 353 15 75 151 307 12 4 355 14 14 36 72 70 111 342 310 101 109 240 346 10 10 30 41 36 34 296 282 113 84 269 201 14 315 276 170 119 99 99 44 60 351 306 93 71 278 271 345 14 244 267 260 249 243 230 225 225 224 225 221 220
16 6 5 4 20 71 93 98 115 126 130 139 133 137 142 133 109 56 72 114 312 10 149 325 357 350 346 4 19 40 6 4 62 325 339 20 24 35 81 131 125 90 31 94 130 200 95 17 264 86 54 359 282 273 231 139 287 288 116 83 39 61 66 71 89 93 46 47 280 266 135 102 278 272 339 42 256 258 255 252 243 228 224 222 223 224 222 223
24 21 19 20 71 89 85 85 104 128 131 135 139 143 140 109 64 65 61 226 335 345 272 19 8 335 7 25 6 6 21 11 337 333 352 17 4 23 79 179 99 84 33 49 80 256 321 323 204 106 65 255 257 274 201 172 267 336 59 57 32 29 37 50 55 79 60 343 258 237 168 138 293 279 224 196 223 222 232 256 250 229 224 223 223 224 221 220
28 25 22 30 52 69 107 104 117 134 135 138 145 138 120 59 60 90 139 257 332 338 7 23 355 8 30 41 6 357 16 349 337 10 18 5 2 14 32 13 39 56 20 18 17 339 356 14 340 277 284 324 14 320 248 261 305 25 52 57 54 343 4 22 353 41 71 282 256 225 193 155 228 267 236 224 234 213 209 237 238 227 226 225 223 223 221 219
34 27 25 32 43 62 114 139 135 135 135 137 138 105 85 55 32 107 273 312 345 336 24 355 328 21 25 32 18 343 342 346 357 37 30 17 36 29 30 30 29 35 11 340 345 349 8 5 315 314 313 41 41 356 332 346 2 28 33 50 63 359 6 12 330 3 143 249 253 289 330 242 229 252 246 234 237 226 215 221 224 222 225 230 227 224 224 218
44 37 33 36 45 66 99 134 138 134 139 138 115 50 76 87 300 225 284 332 11 332 51 13 338 17 22 31 13 332 354 2 351 28 38 66 61 32 14 36 73 69 22 20 21 0 339 315 337 1 340 24 74 77 355 333 356 13 40 74 81 81 43 326 286 332 286 268 289 339 329 278 271 272 240 225 235 232 221 222 225 224 226 236 235 227 227 222
51 44 41 42 51 66 93 127 137 138 144 133 74 49 66 76 226 185 300 277 276 346 40 64 351 10 47 50 347 316 35 27 353 25 16 30 48 9 334 356 18 70 102 74 64 88 66 314 324 17 333 5 60 102 146 161 5 348 154 125 108 139 131 245 238 240 280 288 299 322 303 212 240 274 230 225 265 266 239 235 239 246 244 248 256 248 234 229
55 45 41 41 44 58 88 125 141 145 144 89 58 65 90 221 233 161 253 260 269 341 334 15 46 45 16 355 334 346 81 355 11 37 19 30 63 7 344 330 349 50 90 68 303 129 96 249 262 292 287 58 49 256 126 104 50 301 147 90 30 183 146 123 200 191 226 313 296 285 237 215 225 259 254 276 295 277 255 252 250 253 249 244 260 256 239 233
60 41 37 33 31 44 81 120 139 145 122 76 65 61 152 197 203 172 199 265 65 52 326 339 50 55 350 317 340 0 357 343 29 44 23 32 192 257 319 269 307 32 97 115 204 128 72 274 286 326 312 119 120 219 111 80 310 7 55 47 251 176 123 102 245 321 63 19 286 276 261 288 320 292 292 355 291 268 256 251 247 247 247 241 249 251 241 236
79 43 36 24 20 32 78 121 139 134 78 76 83 102 205 195 159 173 191 177 127 103 85 52 19 39 345 316 319 328 341 355 38 49 30 350 241 226 305 274 269 20 170 146 182 184 134 279 294 330 198 259 191 153 61 37 112 94 80 224 216 87 85 96 52 353 37 342 278 288 265 291 332 295 311 341 278 266 255 244 249 256 251 245 249 250 244 239
179 79 42 16 11 26 76 110 127 100 73 69 78 134 184 171 110 175 180 157 153 71 80 113 219 80 185 256 300 305 341 7 9 37 62 321 304 149 257 283 198 26 315 119 91 93 112 324 298 242 185 295 344 92 332 336 31 100 150 175 104 95 229 53 77 325 358 284 284 298 289 267 214 231 279 266 236 247 253 244 246 251 245 241 248 252 250 247
195 111 33 3 4 31 82 116 109 65 70 78 89 147 156 136 286 220 179 129 111 81 80 163 195 76 151 160 238 289 347 44 15 45 104 4 328 156 119 310 201 13 356 103 119 219 105 89 286 271 227 299 352 72 226 297 350 39 63 22 31 129 170 194 104 170 187 230 275 313 324 269 224 215 218 225 222 223 237 243 235 240 241 238 243 250 251 249
79 107 2 357 9 63 77 80 73 50 66 111 160 160 87 156 241 313 7 57 100 105 107 183 157 89 172 191 203 257 10 95 138 84 147 218 284 249 210 144 191 312 356 61 83 65 60 103 248 291 328 313 299 210 192 186 179 42 34 345 326 55 131 267 347 126 136 159 207 303 310 271 246 209 202 221 223 209 210 220 230 238 241 241 240 245 250 250
67 95 333 352 357 211 59 56 55 49 86 103 127 131 54 148 153 2 2 29 76 183 149 151 145 131 159 160 218 219 351 32 106 96 234 242 155 252 251 153 158 263 12 56 61 105 93 137 213 289 326 273 240 242 191 171 166 157 174 198 185 151 101 72 312 313 99 143 185 158 279 276 260 192 205 219 216 213 209 209 228 240 239 245 247 244 247 252
62 114 324 351 358 166 68 57 29 41 98 84 70 128 56 89 112 33 349 23 59 136 81 108 126 125 152 166 208 188 146 55 193 132 209 218 187 211 234 133 136 130 112 113 278 227 147 102 164 273 266 245 260 298 77 148 140 124 152 167 131 123 122 129 239 267 127 176 193 114 250 272 268 170 217 234 228 241 226 204 229 247 244 249 258 258 257 256
76 156 346 358 329 154 69 59 334 24 70 164 23 81 24 75 108 93 26 16 16 112 46 56 143 99 167 188 158 165 173 189 191 183 202 224 224 218 183 143 142 119 100 135 267 246 100 77 27 288 292 305 311 340 38 69 94 106 246 130 129 151 138 147 179 193 194 210 158 99 261 265 295 1 256 261 284 284 258 216 227 252 264 261 260 265 266 261
113 169 5 12 3 186 87 94 144 67 80 136 68 34 351 88 108 60 73 329 340 132 95 108 207 173 143 109 106 172 195 183 208 219 185 199 237 222 157 163 165 137 135 192 171 145 227 93 67 344 336 340 344 353 350 345 36 207 241 152 132 112 97 116 156 110 266 224 164 155 247 252 290 353 317 289 305 292 272 245 224 237 258 265 263 263 264 264
84 133 324 16 39 75 108 152 143 129 150 108 83 31 359 56 69 59 160 179 198 155 132 144 178 88 95 84 68 131 190 195 239 250 103 217 257 284 149 188 185 159 196 204 134 115 169 179 124 96 322 294 296 295 288 275 250 242 204 176 181 135 131 165 137 110 242 229 154 186 240 266 300 328 328 312 305 287 276 267 250 244 250 257 261 262 262 262
86 73 310 357 27 54 70 101 97 110 150 128 89 5 60 85 304 277 147 145 192 144 91 59 135 84 76 104 111 265 269 296 52 153 194 235 259 287 173 188 201 182 161 143 95 83 98 200 196 173 194 218 232 245 240 189 259 272 254 220 205 181 163 142 113 181 207 166 210 236 244 282 289 283 283 286 274 267 271 273 269 261 256 257 258 257 257 256
93 102 102 16 13 40 42 23 52 85 145 139 113 183 162 125 313 315 132 189 192 128 71 58 130 138 168 165 161 248 261 300 79 182 209 221 257 295 219 170 204 194 153 128 13 99 98 275 237 194 218 236 242 254 267 279 263 261 258 239 209 191 169 163 199 215 156 126 263 250 204 250 274 276 276 272 267 266 271 271 267 260 258 262 261 260 261 260
72 146 179 105 93 103 76 64 97 88 81 89 99 135 136 132 191 195 185 39 39 143 164 136 239 212 193 170 152 205 271 311 250 229 218 216 273 328 333 175 197 187 149 83 346 110 124 254 234 190 242 257 256 265 267 260 259 258 257 249 229 202 181 195 221 214 158 206 256 258 219 248 269 279 279 274 274 276 274 271 265 261 262 262 262 263 262 262
84 118 345 22 96 148 124 87 112 100 79 74 97 149 159 168 198 218 194 89 1 294 179 213 252 230 191 168 134 159 229 226 261 257 215 187 224 330 325 240 208 167 136 112 311 148 150 243 227 187 275 269 259 268 268 253 265 269 258 246 235 220 205 212 230 221 199 231 252 264 273 271 270 273 276 281 285 280 276 274 266 262 263 261 259 260 260 260
145 151 153 62 76 96 41 43 93 95 70 70 107 169 167 172 194 222 194 150 183 250 176 213 233 202 174 174 150 193 221 190 203 240 184 164 232 211 207 219 166 102 83 134 189 220 196 259 212 107 307 279 267 304 300 237 245 268 269 257 239 226 220 226 237 232 222 242 255 265 275 274 269 268 271 278 280 276 272 271 266 260 259 260 260 260 261 262
110 129 140 112 80 358 13 36 78 103 114 143 154 170 187 199 197 184 185 194 183 185 185 191 192 149 108 174 197 235 236 195 200 219 183 173 217 200 202 216 150 134 162 170 151 143 175 258 8 60 333 283 304 0 323 288 272 272 273 267 247 218 210 222 226 212 207 230 252 267 266 263 268 273 268 260 259 262 264 265 268 266 256 254 259 263 263 261
99 90 115 105 85 323 95 77 49 105 162 201 158 163 208 226 208 172 147 224 201 195 195 172 153 132 113 202 226 240 232 203 214 225 193 185 211 192 195 198 157 147 160 166 157 133 150 171 49 60 303 275 298 336 319 320 313 283 263 253 231 200 202 226 243 223 206 208 233 245 242 254 275 296 284 272 263 258 261 261 264 268 264 256 253 257 261 261